Date,TemperatureHighF,TemperatureAvgF,TemperatureLowF,DewpointHighF,DewpointAvgF,DewpointLowF,HumidityHigh,HumidityAvg,HumidityLow,PressureMaxIn,PressureMinIn,WindSpeedMaxMPH,WindSpeedAvgMPH,GustSpeedMaxMPH,PrecipitationSumIn
2013-1-1,41,34,31,35,30,27,90,87,77,30.40,30.26,0,0,0,0.00
2013-1-2,44,35,31,36,30,26,89,81,68,30.25,30.08,2,0,5,0.00
2013-1-3,44,37,29,36,30,24,87,77,59,30.08,29.99,0,0,0,0.19
2013-1-4,50,44,39,46,41,36,92,89,83,30.19,30.06,3,0,8,0.03
2013-1-5,47,44,41,41,39,37,90,84,71,30.10,30.00,3,0,8,0.14
2013-1-6,48,44,40,42,40,37,90,87,80,30.08,29.88,3,1,8,0.22
2013-1-7,51,48,43,48,44,39,91,87,81,30.05,29.76,3,2,12,0.14
2013-1-8,52,48,44,50,45,40,93,88,81,30.05,29.63,5,2,17,0.55
2013-1-9,51,43,37,49,40,33,92,89,85,29.85,29.55,6,1,17,1.19
2013-1-10,41,37,32,38,34,29,91,88,86,30.00,29.83,1,0,3,0.17
2013-1-11,35,31,28,32,28,25,90,87,85,30.22,30.00,1,0,3,0.00
2013-1-12,36,30,27,30,26,23,88,84,73,30.34,30.21,3,0,6,0.00
2013-1-13,38,31,25,30,26,21,87,82,71,30.38,30.33,2,0,3,0.00
2013-1-14,39,37,34,34,32,30,86,83,81,30.46,30.36,1,0,5,0.00
2013-1-15,43,38,33,36,33,29,87,82,70,30.59,30.46,2,0,6,0.03
2013-1-16,42,34,30,36,30,26,89,85,78,30.58,30.41,2,0,4,0.00
2013-1-17,38,33,31,34,30,27,92,89,86,30.42,30.15,1,0,3,0.00
2013-1-18,38,35,32,36,32,30,94,92,90,30.22,30.13,2,0,6,0.03
2013-1-19,37,34,32,34,32,30,93,92,89,30.25,30.19,2,0,5,0.00
2013-1-20,40,35,32,38,33,30,94,91,87,30.26,30.13,2,0,5,0.00
2013-1-21,37,34,30,35,32,28,94,92,90,30.14,30.00,2,0,5,0.00
2013-1-22,41,36,31,38,33,28,92,90,87,30.02,29.77,1,0,3,0.00
2013-1-23,44,41,38,42,38,35,91,89,86,30.00,29.71,2,0,7,0.30
2013-1-24,48,44,43,42,40,39,90,85,73,30.07,29.92,2,0,8,0.19
2013-1-25,53,47,42,48,43,38,92,88,79,29.93,29.80,2,0,5,0.17
2013-1-26,47,44,42,44,41,39,90,88,85,29.90,29.75,2,0,6,0.28
2013-1-27,45,43,42,41,40,39,89,87,85,29.91,29.85,0,0,0,0.00
2013-1-28,45,44,42,42,41,38,90,90,89,29.95,29.87,0,0,0,0.00
2013-1-29,50,47,44,47,44,41,92,91,90,30.19,29.95,0,0,0,0.00
2013-1-30,51,49,47,48,47,44,92,91,90,30.25,30.18,0,0,0,0.00
2013-1-31,52,49,48,48,46,46,92,90,84,30.25,30.16,0,0,0,0.00
2013-2-1,52,47,42,47,44,39,93,88,77,30.26,30.19,0,0,0,0.00
2013-2-2,45,42,40,42,40,38,95,91,87,30.24,30.12,0,0,0,0.00
2013-2-3,51,46,42,46,43,39,91,88,79,30.16,30.06,0,0,0,0.00
2013-2-4,53,48,46,45,44,42,90,84,71,30.07,29.75,0,0,0,0.00
2013-2-5,52,48,46,46,43,42,89,84,73,29.80,29.70,0,0,0,0.00
2013-2-6,52,47,45,42,41,40,86,80,69,29.90,29.65,0,0,0,0.00
2013-2-7,50,45,38,42,38,33,86,77,61,30.06,29.66,0,0,0,0.00
2013-2-8,47,40,33,39,35,30,91,82,68,30.16,30.05,0,0,0,0.00
2013-2-9,48,44,42,42,40,37,88,85,79,30.20,30.11,0,0,0,0.00
2013-2-10,48,41,35,41,37,33,94,85,69,30.24,30.19,0,0,0,0.00
2013-2-11,50,45,41,43,40,37,89,84,74,30.22,30.17,0,0,0,0.00
2013-2-12,52,48,45,47,44,41,90,87,83,30.26,30.14,0,0,0,0.00
2013-2-13,50,47,46,46,44,43,90,88,85,30.36,30.16,0,0,0,0.00
2013-2-14,51,48,45,46,44,42,90,87,79,30.41,30.34,0,0,0,0.00
2013-2-15,55,46,41,46,42,38,94,85,69,30.41,30.04,0,0,0,0.00
2013-2-16,54,46,40,46,42,36,92,87,70,30.06,29.97,0,0,0,0.00
2013-2-17,49,44,42,42,40,38,89,84,73,30.10,29.98,0,0,0,0.00
2013-2-18,50,44,39,41,38,36,88,80,67,29.98,29.62,0,0,0,0.00
2013-2-19,50,44,39,38,36,33,85,76,56,29.88,29.60,0,0,0,0.00
2013-2-20,48,42,37,40,38,33,87,83,73,29.91,29.85,0,0,0,0.00
2013-2-21,46,44,41,41,40,37,89,85,79,29.93,29.87,0,0,0,0.00
2013-2-22,48,44,42,43,39,35,87,83,75,29.90,29.55,6,2,16,0.03
2013-2-23,50,44,40,40,38,36,85,77,62,30.24,29.77,3,1,8,0.00
2013-2-24,50,46,42,39,37,36,81,73,64,30.24,30.13,6,2,15,0.00
2013-2-25,53,46,39,40,38,33,85,74,56,30.13,30.13,5,1,13,0.08
2013-2-26,51,44,36,38,35,32,87,72,54,30.13,30.13,5,1,10,0.00
2013-2-27,52,46,41,44,41,37,89,82,66,30.13,30.13,2,0,6,0.28
2013-2-28,53,48,44,50,45,41,92,90,88,30.13,30.13,2,0,12,0.25
2013-3-1,57,54,52,51,50,49,93,87,79,30.13,30.13,5,1,10,0.08
2013-3-2,59,51,42,50,46,38,89,81,68,30.13,30.13,7,2,14,0.47
2013-3-3,50,43,36,41,36,32,90,78,52,30.13,30.13,5,1,8,0.00
2013-3-4,54,42,32,35,32,28,89,70,42,30.13,29.81,3,1,7,0.00
2013-3-5,54,46,40,40,35,30,82,67,47,29.81,29.60,3,1,8,0.00
2013-3-6,47,44,42,43,40,38,88,86,82,29.76,29.45,3,1,7,0.47
2013-3-7,53,46,40,47,42,36,90,85,68,29.97,29.76,2,0,6,0.30
2013-3-8,52,43,35,42,37,32,93,82,66,30.11,29.95,5,1,9,0.00
2013-3-9,54,47,37,43,39,33,93,74,58,30.36,30.11,3,1,8,0.00
2013-3-10,52,45,38,44,39,34,88,80,65,30.36,30.29,2,0,7,0.00
2013-3-11,55,49,44,46,43,40,88,80,64,30.31,30.03,2,0,6,0.03
2013-3-12,56,53,50,50,48,46,89,84,73,30.04,29.90,6,3,16,0.03
2013-3-13,55,53,52,52,49,48,90,87,84,30.07,29.96,5,2,14,0.19
2013-3-14,54,52,50,51,48,46,91,86,75,30.01,29.90,3,1,9,0.03
2013-3-15,61,54,50,51,49,46,90,83,70,30.06,30.00,3,1,9,0.00
2013-3-16,53,48,40,46,42,35,86,81,68,30.00,29.74,5,1,12,0.03
2013-3-17,52,43,38,39,37,34,88,78,58,30.06,29.84,3,1,10,0.08
2013-3-18,54,45,40,44,37,34,86,74,56,30.11,29.96,3,1,7,0.03
2013-3-19,58,45,36,41,36,32,87,73,39,30.11,29.48,6,2,18,0.22
2013-3-20,53,48,39,49,42,33,91,80,66,29.88,29.26,7,3,20,0.66
2013-3-21,51,42,39,39,36,34,87,81,62,30.09,29.88,3,1,9,0.22
2013-3-22,48,40,35,36,33,29,88,76,56,30.25,30.08,0,0,2,0.11
2013-3-23,52,42,34,35,30,28,86,67,41,30.26,30.13,0,0,0,0.00
2013-3-24,56,44,33,36,31,28,85,64,39,30.18,30.00,0,0,0,0.00
2013-3-25,61,48,36,36,32,29,77,56,36,30.01,29.81,2,0,7,0.00
2013-3-26,62,52,45,43,39,35,72,62,44,29.90,29.83,2,1,7,0.00
2013-3-27,61,51,45,48,42,38,85,72,53,29.87,29.81,2,0,7,0.00
2013-3-28,64,53,45,51,45,40,90,77,54,30.03,29.87,3,0,9,0.06
2013-3-29,64,54,44,48,44,40,88,72,52,30.12,30.03,5,1,8,0.00
2013-3-30,66,54,42,47,43,38,89,69,45,30.14,29.95,6,2,14,0.00
2013-3-31,70,55,43,48,44,39,88,67,40,29.95,29.78,3,1,8,0.00
2013-4-1,62,54,48,51,47,42,88,77,62,30.03,29.84,5,1,10,0.00
2013-4-2,60,54,50,49,47,45,84,76,66,30.07,30.01,3,1,7,0.00
2013-4-3,64,55,48,49,46,43,88,73,49,30.06,29.83,3,1,7,0.00
2013-4-4,58,54,50,54,50,45,89,85,76,29.82,29.50,3,1,9,0.30
2013-4-5,59,53,50,51,49,46,92,88,72,29.74,29.60,5,2,13,0.39
2013-4-6,55,50,47,48,45,43,89,83,74,29.80,29.57,6,2,16,0.39
2013-4-7,50,48,46,44,43,42,88,85,82,29.75,29.54,3,0,6,0.91
2013-4-8,57,50,45,49,45,42,89,83,68,30.14,29.76,2,0,6,0.06
2013-4-9,57,51,43,47,43,40,89,76,59,30.21,30.08,3,1,7,0.00
2013-4-10,58,53,50,53,47,44,90,82,76,30.12,29.81,5,1,11,0.06
2013-4-11,55,50,45,45,42,37,88,73,57,30.16,30.06,5,1,9,0.08
2013-4-12,50,46,42,43,40,37,89,81,68,30.06,29.55,5,1,13,0.19
2013-4-13,52,45,39,45,40,35,89,83,74,29.93,29.63,5,0,15,0.30
2013-4-14,54,48,42,44,39,35,89,74,51,29.88,29.78,5,1,9,0.00
2013-4-15,57,48,42,43,40,36,87,74,52,30.05,29.82,6,1,14,0.00
2013-4-16,56,47,36,43,38,33,89,73,52,30.26,30.05,3,0,7,0.03
2013-4-17,62,50,38,43,39,34,86,67,41,30.32,30.26,5,1,9,0.06
2013-4-18,53,50,46,48,43,39,88,78,69,30.32,30.08,3,1,9,0.00
2013-4-19,57,53,50,53,50,47,91,89,84,30.08,29.93,5,1,12,0.00
2013-4-20,58,52,48,49,47,45,90,85,70,30.14,30.06,5,1,9,0.00
2013-4-21,54,49,43,47,44,38,91,82,66,30.23,30.10,3,1,9,0.00
2013-4-22,60,49,38,45,37,29,92,66,34,30.38,30.23,5,1,12,0.00
2013-4-23,62,51,37,42,36,31,86,60,31,30.30,30.11,6,1,12,0.00
2013-4-24,68,55,40,44,39,33,87,58,28,30.20,29.94,6,1,12,0.00
2013-4-25,70,57,43,46,42,37,82,58,36,30.01,29.90,3,1,7,0.00
2013-4-26,67,59,46,51,47,42,89,66,52,30.11,30.01,3,1,9,0.00
2013-4-27,57,54,52,49,46,41,82,73,61,30.09,30.02,5,2,13,0.00
2013-4-28,60,52,47,51,46,42,91,79,61,30.09,29.83,5,1,15,0.00
2013-4-29,57,50,45,46,40,35,89,69,44,30.04,29.78,6,2,14,0.00
2013-4-30,54,47,41,41,36,30,89,68,42,30.32,30.03,5,1,9,0.00
2013-5-1,63,49,37,39,34,31,81,60,35,30.44,30.32,3,1,10,0.00
2013-5-2,69,54,42,47,40,37,85,63,39,30.42,30.24,6,2,13,0.00
2013-5-3,68,56,43,49,44,38,87,66,48,30.27,30.11,7,2,12,0.00
2013-5-4,75,61,47,51,46,40,88,61,30,30.11,29.89,6,2,13,0.00
2013-5-5,80,64,48,53,47,42,84,57,30,29.89,29.65,5,1,12,0.00
2013-5-6,83,67,50,52,48,44,80,54,30,29.73,29.62,3,1,8,0.00
2013-5-7,71,60,53,55,51,46,84,72,56,29.88,29.70,5,1,12,0.00
2013-5-8,66,58,52,54,51,48,87,77,64,30.02,29.88,0,0,0,0.00
2013-5-9,71,59,50,57,52,46,90,78,53,30.10,29.98,0,0,0,0.00
2013-5-10,78,64,48,58,52,45,90,69,44,30.07,29.97,0,0,0,0.00
2013-5-11,80,67,55,58,52,48,83,60,38,30.04,29.85,0,0,0,0.00
2013-5-12,73,64,59,60,56,51,91,76,57,29.97,29.87,0,0,0,0.00
2013-5-13,68,59,50,58,52,42,89,78,61,30.05,29.60,6,1,18,0.30
2013-5-14,65,56,49,48,44,42,82,65,44,30.09,29.99,5,1,8,0.00
2013-5-15,69,56,46,51,46,41,87,72,43,29.99,29.88,3,0,8,0.00
2013-5-16,70,61,54,55,52,49,90,74,53,29.89,29.73,5,1,10,0.00
2013-5-17,65,59,54,53,50,48,87,74,59,29.92,29.81,3,2,10,0.00
2013-5-18,65,58,52,50,48,46,83,70,53,30.13,29.92,2,0,7,0.00
2013-5-19,65,58,51,52,49,46,84,73,59,30.26,30.13,5,1,9,0.00
2013-5-20,68,57,45,53,48,42,90,72,50,30.22,29.78,5,1,10,0.00
2013-5-21,59,53,49,51,47,45,88,81,70,29.78,29.63,3,0,8,0.00
2013-5-22,58,50,47,49,46,44,89,84,71,29.81,29.72,3,1,8,0.00
2013-5-23,61,52,47,49,46,44,91,80,59,29.88,29.79,5,1,11,0.00
2013-5-24,65,56,47,51,47,44,91,73,52,29.91,29.83,3,1,9,0.00
2013-5-25,68,59,52,50,48,46,84,67,48,29.91,29.72,3,1,9,0.00
2013-5-26,68,59,52,55,51,47,88,76,62,29.85,29.80,3,1,12,0.00
2013-5-27,64,58,52,57,53,48,90,83,76,29.84,29.58,2,0,8,0.00
2013-5-28,66,58,53,53,51,48,91,77,60,29.75,29.65,5,1,13,0.00
2013-5-29,63,56,52,54,50,48,88,82,68,29.83,29.55,5,1,10,0.00
2013-5-30,66,58,50,51,48,46,88,72,53,30.10,29.83,5,1,12,0.00
2013-5-31,69,59,52,51,47,44,83,67,45,30.20,30.10,3,1,9,0.00
2013-6-1,72,61,51,52,48,44,84,64,41,30.12,29.92,3,1,10,0.00
2013-6-2,69,61,54,54,50,48,88,69,48,29.95,29.91,5,1,13,0.00
2013-6-3,71,61,50,55,51,46,88,72,51,29.98,29.92,3,1,9,0.00
2013-6-4,78,64,50,57,52,46,89,67,45,29.99,29.88,5,1,9,0.00
2013-6-5,76,65,53,59,53,46,80,66,53,29.99,29.89,5,1,10,0.00
2013-6-6,79,66,52,58,51,44,88,62,38,29.91,29.86,5,1,12,0.00
2013-6-7,70,62,56,55,49,44,76,62,46,30.02,29.89,3,1,9,0.00
2013-6-8,70,60,53,53,49,46,79,68,54,30.05,29.97,0,0,0,0.00
2013-6-9,68,58,50,51,48,45,86,68,49,29.98,29.89,0,0,0,0.00
2013-6-10,70,60,48,50,47,43,85,65,43,29.91,29.75,0,0,0,0.00
2013-6-11,68,59,54,54,48,45,75,67,51,29.97,29.81,0,0,0,0.00
2013-6-12,70,61,53,51,48,45,80,64,46,30.01,29.96,0,0,0,0.00
2013-6-13,70,60,53,53,49,44,85,67,42,30.01,30.00,0,0,0,0.00
2013-6-14,69,60,54,51,49,47,79,67,51,30.00,30.00,0,0,0,0.00
2013-6-15,75,63,49,57,52,45,90,69,49,30.00,30.00,0,0,0,0.00
2013-6-16,76,65,54,61,55,50,88,72,53,30.00,30.00,0,0,0,0.00
2013-6-17,75,65,55,56,53,49,89,67,40,30.00,30.00,0,0,0,0.00
2013-6-18,75,63,55,57,52,46,89,70,37,30.00,30.00,0,0,0,0.00
2013-6-19,68,61,56,55,52,49,81,73,61,30.00,30.00,2,0,5,0.00
2013-6-20,60,58,55,54,53,51,87,84,79,30.00,30.00,3,0,7,0.00
2013-6-21,69,60,53,57,54,51,92,81,60,30.00,30.00,2,0,7,0.00
2013-6-22,76,64,51,59,53,48,92,69,46,30.00,30.00,2,0,9,0.00
2013-6-23,74,67,59,62,58,54,89,75,62,30.00,29.49,2,0,6,0.00
2013-6-24,72,64,59,60,57,54,92,77,57,29.57,29.44,5,1,12,0.00
2013-6-25,76,65,57,61,57,54,91,77,54,29.59,29.54,3,1,13,0.00
2013-6-26,75,72,62,63,61,59,91,69,60,29.95,29.76,3,1,10,0.00
2013-6-27,75,66,61,64,60,56,88,80,64,30.07,29.91,2,0,6,0.00
2013-6-28,86,73,60,66,62,58,93,72,48,30.06,29.89,3,1,8,0.00
2013-6-29,84,73,64,65,62,56,86,70,53,29.96,29.85,3,1,6,0.00
2013-6-30,89,75,59,68,63,55,88,67,44,29.88,29.71,3,1,9,0.00
2013-7-1,85,79,67,68,64,57,73,61,47,29.88,29.76,5,1,11,0.00
2013-7-2,80,69,58,61,56,50,89,65,42,29.97,29.88,6,1,10,0.00
2013-7-3,84,65,58,60,51,46,71,61,42,30.01,29.90,5,2,9,0.00
2013-7-4,73,68,61,56,54,49,74,62,53,29.98,29.89,3,1,7,0.00
2013-7-5,72,64,58,61,54,51,81,73,59,29.90,29.81,3,0,7,0.00
2013-7-6,79,67,57,59,55,52,85,67,48,29.84,29.72,5,1,8,0.00
2013-7-7,77,68,58,61,57,52,84,69,55,29.81,29.72,3,1,10,0.00
2013-7-8,79,71,61,60,57,54,78,64,47,29.95,29.81,3,1,7,0.00
2013-7-9,83,72,60,61,57,52,82,62,43,29.96,29.86,5,1,10,0.00
2013-7-10,75,67,59,59,54,49,76,64,55,29.92,29.88,5,1,10,0.00
2013-7-11,70,62,58,54,49,47,77,65,50,29.92,29.92,3,1,9,0.00
2013-7-12,69,64,56,54,52,47,77,66,54,29.92,29.92,3,0,7,0.00
2013-7-13,76,65,52,54,50,45,82,60,38,29.92,29.92,5,1,9,0.00
2013-7-14,80,68,54,55,50,47,81,55,32,29.92,29.92,5,1,9,0.00
2013-7-15,81,69,56,57,51,48,78,55,40,29.92,29.92,6,2,14,0.00
2013-7-16,88,78,67,63,55,49,64,46,33,29.92,29.92,5,2,10,0.00
2013-7-17,79,68,63,62,57,54,78,67,54,29.92,29.92,5,1,12,0.00
2013-7-18,81,68,60,66,56,53,80,68,53,29.92,29.92,0,0,0,0.00
2013-7-19,79,67,57,61,57,51,85,70,53,29.92,29.92,0,0,0,0.00
2013-7-20,84,66,58,65,57,52,85,73,51,29.92,29.92,0,0,0,0.00
2013-7-21,76,66,59,61,57,53,85,75,59,29.92,29.92,0,0,0,0.00
2013-7-22,78,68,60,62,58,55,85,72,55,29.92,29.92,0,0,0,0.00
2013-7-23,84,70,58,61,56,53,84,63,40,29.92,29.92,0,0,0,0.00
2013-7-24,83,71,58,59,54,50,80,57,38,29.92,29.85,0,0,0,0.00
2013-7-25,95,71,56,64,52,48,77,55,32,29.95,29.90,0,0,0,0.00
2013-7-26,82,69,57,56,51,47,78,55,30,30.00,29.94,0,0,0,0.00
2013-7-27,78,67,56,56,52,48,80,59,42,30.02,29.85,0,0,0,0.00
2013-7-28,76,64,58,63,53,50,80,69,55,29.89,29.82,0,0,0,0.00
2013-7-29,76,66,59,57,54,52,77,67,50,29.87,29.81,0,0,0,0.00
2013-7-30,78,68,59,63,56,53,83,68,52,30.01,29.87,0,0,0,0.00
2013-7-31,72,65,60,61,58,53,83,77,65,29.99,29.85,0,0,0,0.00
2013-8-1,68,64,59,58,56,54,84,76,67,29.93,29.87,0,0,0,0.00
2013-8-2,73,62,60,66,57,54,92,83,72,29.99,29.91,0,0,0,0.00
2013-8-3,74,66,61,62,59,56,91,79,63,29.99,29.90,0,0,0,0.00
2013-8-4,79,69,58,62,59,53,87,72,53,29.92,29.80,0,0,0,0.00
2013-8-5,83,72,60,63,58,54,86,64,40,29.87,29.78,0,0,0,0.00
2013-8-6,84,69,57,61,54,50,82,61,36,30.05,29.77,3,0,7,0.00
2013-8-7,84,71,58,61,56,52,83,61,39,29.86,29.78,3,1,12,0.00
2013-8-8,80,70,60,62,57,54,84,66,51,29.89,29.80,5,1,11,0.00
2013-8-9,81,70,58,61,57,51,81,64,48,29.82,29.69,2,1,9,0.00
2013-8-10,78,71,67,64,60,58,78,68,59,29.86,29.74,3,1,8,0.00
2013-8-11,76,68,61,60,57,55,82,69,51,29.91,29.84,3,1,8,0.00
2013-8-12,78,68,60,62,56,53,82,68,50,29.93,29.85,3,1,9,0.00
2013-8-13,80,69,59,62,56,53,83,65,43,29.95,29.79,2,1,7,0.00
2013-8-14,82,68,66,65,59,56,82,73,56,29.84,29.76,3,0,7,0.00
2013-8-15,71,68,65,66,63,60,89,85,80,29.85,29.77,2,0,5,0.00
2013-8-16,80,72,65,66,60,57,89,65,53,29.90,29.84,2,1,9,0.00
2013-8-17,78,70,64,62,59,56,75,67,55,29.97,29.89,3,1,11,0.00
2013-8-18,77,68,62,61,57,53,82,67,56,30.00,29.93,5,1,10,0.00
2013-8-19,80,68,62,62,56,51,77,65,51,29.97,29.90,5,1,11,0.00
2013-8-20,77,66,59,60,53,50,75,63,47,30.01,29.84,5,2,12,0.00
2013-8-21,80,67,55,60,53,48,82,61,45,29.95,29.79,6,2,12,0.00
2013-8-22,83,71,58,60,56,51,79,58,41,29.81,29.65,3,1,9,0.00
2013-8-23,75,68,64,59,57,55,79,67,55,29.75,29.68,6,2,13,0.00
2013-8-24,74,69,62,59,56,54,83,64,51,29.78,29.71,3,1,8,0.00
2013-8-25,74,64,55,60,55,50,85,73,52,29.80,29.72,5,0,8,0.00
2013-8-26,76,67,60,66,58,54,87,75,51,29.82,29.70,3,0,9,0.00
2013-8-27,78,69,62,62,59,57,87,72,54,29.82,29.65,3,0,7,0.00
2013-8-28,83,70,62,67,61,57,90,75,57,29.74,29.68,2,0,7,0.00
2013-8-29,74,68,65,67,64,62,90,86,74,29.86,29.71,2,0,8,0.00
2013-8-30,77,69,61,64,59,55,88,72,48,29.99,29.82,3,1,10,0.00
2013-8-31,78,67,57,61,57,52,88,71,52,29.94,29.69,5,1,10,0.00
2013-9-1,88,74,62,65,60,56,80,62,47,29.71,29.65,3,1,9,0.00
2013-9-2,72,69,66,60,58,57,75,68,64,29.80,29.74,1,0,4,0.00
2013-9-3,75,66,63,68,61,57,89,84,75,29.88,29.79,2,0,4,0.00
2013-9-4,70,64,60,62,60,56,91,85,77,29.90,29.85,3,1,7,0.00
2013-9-5,70,64,60,63,59,57,92,85,76,29.90,29.77,5,1,12,0.00
2013-9-6,71,65,62,65,61,59,92,87,76,29.97,29.79,2,0,7,0.00
2013-9-7,73,66,62,63,60,58,91,83,68,29.95,29.86,2,0,7,0.00
2013-9-8,76,66,59,64,60,55,91,81,64,29.96,29.87,2,0,7,0.00
2013-9-9,84,66,60,70,60,56,90,80,58,29.91,29.82,2,1,7,0.00
2013-9-10,82,66,59,71,60,55,90,80,65,29.88,29.73,5,1,9,0.00
2013-9-11,87,71,59,64,60,55,90,71,43,29.79,29.72,3,1,7,0.00
2013-9-12,79,69,62,68,60,57,89,76,59,29.84,29.74,2,0,7,0.00
2013-9-13,68,65,61,62,60,56,89,84,79,29.81,29.73,2,0,5,0.00
2013-9-14,75,66,63,66,60,58,88,83,72,29.74,29.59,2,0,5,0.00
2013-9-15,67,64,61,62,60,57,90,88,84,29.66,29.55,2,0,8,0.00
2013-9-16,70,63,59,61,58,54,89,84,73,29.78,29.65,3,1,9,0.00
2013-9-17,65,61,58,55,54,53,87,79,68,29.78,29.71,1,0,5,0.00
2013-9-18,72,61,55,62,53,50,89,77,62,29.91,29.78,3,0,7,0.00
2013-9-19,75,62,51,56,51,46,87,70,49,29.90,29.61,2,0,6,0.00
2013-9-20,73,63,54,56,53,48,84,71,52,29.61,29.33,5,1,10,0.00
2013-9-21,69,62,59,57,55,53,85,80,64,29.56,29.49,3,1,10,0.06
2013-9-22,62,60,58,56,53,49,84,79,65,29.58,29.43,5,2,14,0.03
2013-9-23,63,58,54,55,52,49,86,82,74,29.82,29.58,3,1,10,0.00
2013-9-24,65,58,53,53,50,48,88,76,59,29.81,29.63,3,1,8,0.00
2013-9-25,60,55,51,52,49,45,86,80,68,29.89,29.71,3,1,10,0.00
2013-9-26,69,54,47,58,47,41,89,78,63,29.98,29.88,3,0,8,0.00
2013-9-27,59,56,52,53,51,47,85,82,77,29.98,29.69,3,1,9,0.00
2013-9-28,61,58,55,58,54,51,92,87,82,29.69,29.20,6,2,15,0.00
2013-9-29,57,56,54,52,51,49,88,83,79,29.41,29.02,5,3,15,0.00
2013-9-30,59,54,52,51,48,46,86,80,72,29.76,29.26,5,2,14,0.00
2013-10-1,59,54,51,50,47,45,85,77,63,29.95,29.75,5,1,14,0.00
2013-10-2,57,54,53,51,49,47,86,81,75,30.01,29.90,2,0,9,0.00
2013-10-3,60,54,50,51,48,44,86,80,64,30.30,30.01,2,0,7,0.06
2013-10-4,63,53,44,52,45,39,85,76,62,30.32,30.19,2,0,5,0.00
2013-10-5,67,56,48,53,47,43,86,75,53,30.21,29.99,3,0,6,0.00
2013-10-6,69,57,47,54,48,42,87,71,50,29.99,29.73,2,0,8,0.00
2013-10-7,62,57,55,52,50,48,84,79,64,29.86,29.74,5,2,14,0.00
2013-10-8,58,54,48,50,48,42,83,78,64,29.93,29.81,1,0,5,0.00
2013-10-9,59,50,42,48,43,37,84,76,64,29.99,29.81,2,0,6,0.00
2013-10-10,61,55,50,51,48,44,84,78,65,29.92,29.78,2,0,6,0.00
2013-10-11,58,54,52,52,49,47,85,83,79,29.99,29.92,2,0,3,0.00
2013-10-12,58,54,49,51,48,43,87,81,72,30.06,29.91,0,0,0,0.00
2013-10-13,56,50,46,49,45,41,88,82,75,30.22,30.06,0,0,0,0.00
2013-10-14,57,49,44,49,43,38,87,81,69,30.27,30.21,0,0,0,0.00
2013-10-15,60,52,44,55,46,40,86,80,71,30.24,30.01,0,0,0,0.00
2013-10-16,57,53,49,50,48,44,87,82,77,30.06,30.00,0,0,0,0.00
2013-10-17,59,54,49,54,48,44,83,80,76,30.13,30.06,0,0,0,0.00
2013-10-18,58,51,47,51,46,42,86,82,77,30.10,29.98,0,0,0,0.00
2013-10-19,54,50,47,49,46,42,88,84,81,30.04,29.99,0,0,0,0.00
2013-10-20,53,51,49,48,46,45,87,85,82,30.06,30.00,0,0,0,0.00
2013-10-21,54,51,50,49,47,45,87,85,82,30.02,29.95,0,0,0,0.00
2013-10-22,56,52,50,51,48,45,88,86,82,29.97,29.88,0,0,0,0.00
2013-10-23,58,52,48,53,47,44,88,85,83,29.88,29.88,0,0,0,0.00
2013-10-24,59,51,48,54,47,44,87,85,79,29.88,29.88,0,0,0,0.06
2013-10-25,56,53,49,50,48,44,86,83,79,29.88,29.88,0,0,0,0.00
2013-10-26,55,52,49,48,47,44,87,82,74,29.88,29.88,0,0,2,0.11
2013-10-27,56,52,47,50,46,42,87,82,73,29.88,29.88,6,1,15,0.03
2013-10-28,60,51,45,44,40,36,87,67,51,29.88,29.88,6,1,12,0.00
2013-10-29,54,46,39,42,38,33,83,73,56,29.88,29.88,2,0,6,0.00
2013-10-30,62,50,41,51,42,34,83,74,62,29.88,29.88,3,1,8,0.00
2013-10-31,57,54,52,51,48,44,84,80,70,29.88,29.88,3,1,14,0.08
2013-11-1,62,56,52,53,50,47,87,80,69,29.88,29.88,2,0,5,0.00
2013-11-2,56,52,48,51,47,42,87,82,76,29.88,29.88,7,1,15,0.00
2013-11-3,54,47,44,44,41,38,86,80,64,29.88,29.88,3,0,7,0.00
2013-11-4,51,45,39,41,38,34,84,76,61,29.88,29.88,2,0,5,0.00
2013-11-5,54,50,47,49,45,41,86,83,79,29.88,29.88,2,0,8,0.00
2013-11-6,54,51,47,47,46,43,86,83,78,29.88,29.88,2,0,7,0.00
2013-11-7,54,52,51,51,47,46,92,85,80,29.88,29.88,6,2,16,0.00
2013-11-8,55,51,47,47,45,42,85,80,72,29.88,29.88,3,0,8,0.00
2013-11-9,54,48,42,47,43,37,87,82,74,29.88,29.88,3,0,5,0.00
2013-11-10,57,50,48,52,45,44,88,84,78,29.88,29.88,3,1,7,0.00
2013-11-11,58,51,45,51,45,41,88,79,61,29.88,29.88,3,0,8,0.00
2013-11-12,62,54,49,58,49,43,89,84,78,29.88,29.88,3,1,7,0.00
2013-11-13,58,55,52,50,49,47,86,82,74,29.88,29.88,3,1,9,0.00
2013-11-14,54,51,49,48,46,44,86,83,79,29.88,29.88,2,0,5,0.00
2013-11-15,50,48,48,46,44,42,87,84,79,29.88,29.88,6,2,18,0.00
2013-11-16,51,48,45,43,41,38,85,77,68,29.88,29.88,3,1,10,0.00
2013-11-17,53,50,47,47,44,39,83,79,73,29.88,29.88,6,2,17,0.00
2013-11-18,54,53,50,50,48,45,88,86,81,29.88,29.88,3,1,9,0.00
2013-11-19,54,47,41,51,40,27,90,76,53,29.88,29.88,5,1,10,0.00
2013-11-20,43,40,36,31,29,27,77,66,55,29.88,29.88,5,1,8,0.00
2013-11-21,42,37,32,29,28,26,78,68,53,29.88,29.88,3,0,8,0.00
2013-11-22,46,38,33,32,29,26,79,71,56,29.88,29.88,3,0,5,0.00
2013-11-23,50,40,33,37,32,27,82,73,57,29.88,29.88,2,0,5,0.00
2013-11-24,50,42,36,41,35,30,84,77,68,29.88,29.88,3,0,6,0.00
2013-11-25,51,43,37,42,36,31,84,76,68,29.88,29.88,2,0,3,0.00
2013-11-26,51,45,38,43,38,32,84,78,70,29.88,29.88,2,0,5,0.00
2013-11-27,54,48,43,44,40,36,79,74,66,29.88,29.88,2,0,5,0.00
2013-11-28,50,42,38,43,36,32,83,79,73,29.88,29.88,1,0,5,0.00
2013-11-29,51,50,50,46,45,44,83,82,79,29.88,29.88,1,0,5,0.00
2013-11-30,57,51,49,51,45,44,84,79,72,29.88,29.88,3,1,9,0.00
2013-12-1,53,49,46,46,43,41,82,80,77,29.88,29.88,6,2,8,0.00
2013-12-2,46,44,42,41,37,36,82,78,68,29.88,29.88,2,0,7,0.00
2013-12-3,42,38,34,37,29,26,81,69,56,29.88,29.88,5,1,8,0.00
2013-12-4,39,35,30,28,26,24,79,70,63,29.88,29.88,2,0,5,0.00
2013-12-5,38,33,28,27,24,21,76,68,59,29.88,29.88,1,0,4,0.00
2013-12-6,32,29,21,21,17,9,66,61,58,30.11,29.88,5,1,10,0.00
2013-12-7,28,21,16,10,8,6,71,57,41,30.30,30.10,2,1,7,0.00
2013-12-8,31,23,15,20,15,8,77,70,57,30.44,30.29,2,0,5,0.00
2013-12-9,34,29,19,24,20,13,80,71,60,30.45,30.35,1,0,3,0.00
2013-12-10,40,36,33,33,30,24,81,77,70,30.36,30.28,1,0,3,0.00
2013-12-11,42,34,29,36,30,25,89,84,76,30.29,30.03,1,0,6,0.00
2013-12-12,44,38,31,40,35,28,92,87,75,30.03,29.92,2,0,9,0.00
2013-12-13,48,46,43,46,43,40,92,91,90,30.28,29.99,1,0,7,0.00
2013-12-14,49,47,43,45,44,41,92,88,83,30.30,30.19,3,1,7,0.00
2013-12-15,50,49,48,48,46,44,92,90,82,30.31,30.18,3,1,9,0.00
2013-12-16,48,44,41,46,42,38,93,91,89,30.35,30.13,2,0,4,0.00
2013-12-17,45,42,40,43,40,38,93,92,90,30.14,29.98,2,0,6,0.00
2013-12-18,45,42,34,42,38,30,92,86,72,30.02,29.89,5,0,10,0.00
2013-12-19,40,34,30,32,30,26,89,83,70,30.20,30.01,2,0,4,0.00
2013-12-20,41,37,33,39,34,30,91,88,83,30.06,29.58,3,1,12,0.00
2013-12-21,46,44,40,43,41,38,93,91,90,30.02,29.70,1,0,3,0.00
2013-12-22,50,48,45,49,46,42,93,93,91,30.15,30.01,3,1,8,0.00
2013-12-23,52,48,44,49,46,41,93,91,89,30.37,29.98,5,2,15,0.00
2013-12-24,47,41,36,43,38,33,93,89,80,30.48,30.37,2,0,5,0.00
2013-12-25,40,36,34,38,34,31,93,91,89,30.40,30.26,1,0,3,0.00
2013-12-26,44,39,34,41,36,32,93,91,88,30.26,30.10,2,0,3,0.00
2013-12-27,40,40,40,37,37,37,90,90,90,30.10,30.10,0,0,0,0.00
2013-12-28,40,40,40,37,37,37,90,90,90,30.10,30.10,0,0,0,0.00
2013-12-29,40,40,40,37,37,37,90,90,90,30.10,30.10,0,0,0,0.00
2013-12-30,40,40,40,37,37,37,90,90,90,30.10,30.10,0,0,0,0.00
2013-12-31,40,40,40,37,37,37,90,90,90,30.10,30.10,0,0,0,0.00
2014-1-1,40,40,40,37,37,37,90,90,90,30.10,30.10,0,0,0,0.00
2014-1-2,40,40,40,37,37,37,90,90,90,30.10,30.10,0,0,0,0.00